When you browse on this site, cookies collect data to enhance your experience and personalize the content and advertising you see.
Visit our Privacy Policy to learn more. By continuing to use the site, you agree to this use of cookies and data.
  • In Switzerland
  • List of Countries
  • For 7 days
  • Water Temperature
  • Satellite Maps
  • Weather Map
  • Weather Widgets
  • user-avatar
    Login

    Hourly Weather Trujillo

    Today, 24 July, Wednesday

    Time Temperature Precipitation Wind Pressure Humidity
    00:00 +18°C° 0 mm 2 mps 648 mmHg 65%
    01:00 +18°C° 0 mm 2 mps 648 mmHg 65%
    02:00 +18°C° 0 mm 2 mps 647 mmHg 68%
    03:00 +18°C° 0 mm 2 mps 647 mmHg 71%
    04:00 +18°C° 0 mm 2 mps 647 mmHg 74%
    05:00 +20°C° 0 mm 1 mps 647 mmHg 73%
    06:00 +20°C° 0 mm 1 mps 648 mmHg 73%
    07:00 +21°C° 0 mm 1 mps 648 mmHg 73%
    08:00 +22°C° 0.1 mm 1 mps 649 mmHg 69%
    09:00 +24°C° 0.1 mm 1 mps 650 mmHg 66%
    10:00 +25°C° 0.1 mm 1 mps 650 mmHg 63%
    11:00 +26°C° 0.2 mm 1 mps 650 mmHg 58%
    12:00 +27°C° 0.2 mm 2 mps 650 mmHg 54%
    13:00 +28°C° 0.2 mm 2 mps 650 mmHg 49%
    14:00 +27°C° 0.3 mm 2 mps 649 mmHg 53%
    15:00 +26°C° 0.3 mm 1 mps 648 mmHg 56%
    16:00 +25°C° 0.3 mm 1 mps 647 mmHg 60%
    17:00 +23°C° 0 mm 1 mps 647 mmHg 67%
    18:00 +21°C° 0 mm 1 mps 647 mmHg 73%
    19:00 +19°C° 0 mm 1 mps 646 mmHg 80%
    20:00 +19°C° 0 mm 1 mps 647 mmHg 74%
    21:00 +18°C° 0 mm 2 mps 647 mmHg 69%
    22:00 +17°C° 0 mm 2 mps 647 mmHg 63%
    23:00 +17°C° 0 mm 2 mps 647 mmHg 61%

    Tomorrow, 25 July, Thursday

    Time Temperature Precipitation Wind Pressure Humidity
    00:00 +17°C° 0 mm 2 mps 646 mmHg 59%
    01:00 +17°C° 0 mm 2 mps 646 mmHg 57%
    02:00 +17°C° 0 mm 2 mps 646 mmHg 58%
    03:00 +17°C° 0 mm 2 mps 646 mmHg 59%
    04:00 +17°C° 0 mm 2 mps 646 mmHg 60%
    05:00 +17°C° 0 mm 2 mps 646 mmHg 60%
    06:00 +19°C° 0 mm 1 mps 647 mmHg 61%
    07:00 +20°C° 0 mm 1 mps 647 mmHg 61%
    08:00 +22°C° 0 mm 1 mps 648 mmHg 57%
    09:00 +24°C° 0 mm 1 mps 649 mmHg 53%
    10:00 +26°C° 0 mm 1 mps 650 mmHg 49%
    11:00 +27°C° 0 mm 1 mps 650 mmHg 49%
    12:00 +27°C° 0 mm 1 mps 649 mmHg 49%
    13:00 +28°C° 0 mm 1 mps 649 mmHg 49%
    14:00 +26°C° 0.4 mm 1 mps 648 mmHg 59%
    15:00 +25°C° 0.4 mm 1 mps 647 mmHg 69%
    16:00 +24°C° 0.4 mm 1 mps 646 mmHg 80%
    17:00 +22°C° 0.4 mm 1 mps 646 mmHg 83%
    18:00 +21°C° 0.4 mm 1 mps 646 mmHg 87%
    19:00 +20°C° 0.4 mm 1 mps 646 mmHg 91%
    20:00 +19°C° 0 mm 1 mps 647 mmHg 90%
    21:00 +18°C° 0 mm 1 mps 647 mmHg 89%
    22:00 +17°C° 0 mm 2 mps 647 mmHg 88%
    23:00 +17°C° 0 mm 2 mps 647 mmHg 86%

    Day after tomorrow, 26 July, Friday

    Time Temperature Precipitation Wind Pressure Humidity
    00:00 +17°C° 0 mm 2 mps 647 mmHg 84%
    01:00 +16°C° 0 mm 2 mps 646 mmHg 81%
    02:00 +16°C° 0 mm 2 mps 646 mmHg 80%
    03:00 +16°C° 0 mm 2 mps 646 mmHg 78%
    04:00 +16°C° 0 mm 2 mps 646 mmHg 76%
    05:00 +18°C° 0 mm 1 mps 647 mmHg 74%
    06:00 +19°C° 0 mm 1 mps 647 mmHg 71%
    07:00 +20°C° 0 mm 1 mps 648 mmHg 69%
    08:00 +22°C° 0 mm 1 mps 649 mmHg 63%
    09:00 +24°C° 0 mm 1 mps 650 mmHg 58%
    10:00 +26°C° 0 mm 1 mps 651 mmHg 52%
    11:00 +26°C° 0.4 mm 1 mps 650 mmHg 56%
    12:00 +26°C° 0.4 mm 1 mps 650 mmHg 59%
    13:00 +26°C° 0.4 mm 1 mps 649 mmHg 63%
    14:00 +26°C° 0.9 mm 1 mps 649 mmHg 68%
    15:00 +25°C° 0.9 mm 1 mps 648 mmHg 72%
    16:00 +24°C° 0.9 mm 1 mps 647 mmHg 77%
    17:00 +23°C° 0.3 mm 1 mps 647 mmHg 81%
    18:00 +21°C° 0.3 mm 1 mps 647 mmHg 86%
    19:00 +20°C° 0.3 mm 1 mps 647 mmHg 90%
    20:00 +19°C° 0 mm 1 mps 647 mmHg 89%
    21:00 +18°C° 0 mm 2 mps 648 mmHg 87%
    22:00 +17°C° 0 mm 2 mps 648 mmHg 86%
    23:00 +17°C° 0 mm 2 mps 648 mmHg 83%

    27 July, Saturday

    Time Temperature Precipitation Wind Pressure Humidity
    00:00 +17°C° 0 mm 2 mps 647 mmHg 80%
    01:00 +18°C° 0 mm 1 mps 647 mmHg 77%
    02:00 +18°C° 0 mm 1 mps 647 mmHg 77%
    03:00 +18°C° 0 mm 1 mps 647 mmHg 76%
    04:00 +18°C° 0 mm 1 mps 647 mmHg 76%
    05:00 +19°C° 0 mm 1 mps 647 mmHg 75%
    06:00 +20°C° 0 mm 1 mps 648 mmHg 74%
    07:00 +21°C° 0 mm 1 mps 649 mmHg 73%
    08:00 +22°C° 0.1 mm 1 mps 649 mmHg 68%
    09:00 +24°C° 0.1 mm 1 mps 650 mmHg 64%
    10:00 +25°C° 0.1 mm 1 mps 651 mmHg 59%
    11:00 +25°C° 0.4 mm 1 mps 650 mmHg 63%
    12:00 +25°C° 0.4 mm 1 mps 650 mmHg 66%
    13:00 +24°C° 0.4 mm 1 mps 649 mmHg 70%
    14:00 +24°C° 0.1 mm 1 mps 648 mmHg 71%
    15:00 +23°C° 0.1 mm 1 mps 648 mmHg 73%
    16:00 +22°C° 0.1 mm 1 mps 647 mmHg 74%
    17:00 +21°C° 0.1 mm 1 mps 647 mmHg 76%
    18:00 +21°C° 0.1 mm 1 mps 648 mmHg 78%
    19:00 +20°C° 0.1 mm 1 mps 648 mmHg 81%
    20:00 +20°C° 0.3 mm 1 mps 648 mmHg 81%
    21:00 +19°C° 0.3 mm 1 mps 648 mmHg 82%
    22:00 +19°C° 0.3 mm 1 mps 649 mmHg 83%
    23:00 +19°C° 0.2 mm 1 mps 648 mmHg 83%

    28 July, Sunday

    Time Temperature Precipitation Wind Pressure Humidity
    00:00 +19°C° 0.2 mm 1 mps 648 mmHg 84%
    01:00 +19°C° 0.2 mm 1 mps 647 mmHg 84%
    02:00 +18°C° 0 mm 1 mps 647 mmHg 85%
    03:00 +18°C° 0 mm 1 mps 647 mmHg 85%
    04:00 +18°C° 0 mm 1 mps 647 mmHg 86%
    05:00 +19°C° 0 mm 1 mps 648 mmHg 84%
    06:00 +20°C° 0 mm 1 mps 648 mmHg 82%
    07:00 +20°C° 0 mm 1 mps 649 mmHg 79%
    08:00 +22°C° 0 mm 1 mps 649 mmHg 74%
    09:00 +24°C° 0 mm 1 mps 650 mmHg 68%
    10:00 +25°C° 0 mm 1 mps 651 mmHg 62%
    11:00 +25°C° 0.8 mm 1 mps 650 mmHg 68%
    12:00 +24°C° 0.8 mm 1 mps 649 mmHg 74%
    13:00 +23°C° 0.8 mm 1 mps 649 mmHg 80%
    14:00 +23°C° 1.2 mm 1 mps 648 mmHg 82%
    15:00 +23°C° 1.2 mm 1 mps 648 mmHg 83%
    16:00 +22°C° 1.2 mm 1 mps 647 mmHg 85%
    17:00 +21°C° 0.2 mm 1 mps 647 mmHg 87%
    18:00 +20°C° 0.2 mm 1 mps 647 mmHg 89%
    19:00 +19°C° 0.2 mm 1 mps 647 mmHg 91%
    20:00 +19°C° 0 mm 1 mps 647 mmHg 89%
    21:00 +18°C° 0 mm 1 mps 647 mmHg 87%
    22:00 +18°C° 0 mm 1 mps 648 mmHg 85%
    23:00 +18°C° 0 mm 1 mps 647 mmHg 84%

    29 July, Monday

    Time Temperature Precipitation Wind Pressure Humidity
    00:00 +18°C° 0 mm 1 mps 647 mmHg 83%
    01:00 +18°C° 0 mm 1 mps 646 mmHg 82%
    02:00 +18°C° 0 mm 1 mps 646 mmHg 82%
    03:00 +18°C° 0 mm 1 mps 646 mmHg 82%
    04:00 +18°C° 0 mm 1 mps 646 mmHg 82%
    05:00 +19°C° 0 mm 1 mps 647 mmHg 80%
    06:00 +20°C° 0 mm 1 mps 647 mmHg 79%
    07:00 +20°C° 0 mm 1 mps 648 mmHg 78%
    08:00 +22°C° 0 mm 1 mps 649 mmHg 73%
    09:00 +24°C° 0 mm 1 mps 649 mmHg 67%
    10:00 +26°C° 0 mm 1 mps 650 mmHg 62%
    11:00 +26°C° 0.3 mm 1 mps 649 mmHg 63%
    12:00 +26°C° 0.3 mm 1 mps 649 mmHg 64%
    13:00 +26°C° 0.3 mm 1 mps 649 mmHg 65%
    14:00 +26°C° 0.5 mm 1 mps 648 mmHg 67%
    15:00 +26°C° 0.5 mm 1 mps 647 mmHg 69%
    16:00 +25°C° 0.5 mm 1 mps 647 mmHg 71%
    17:00 +23°C° 0.2 mm 1 mps 646 mmHg 76%
    18:00 +22°C° 0.2 mm 1 mps 646 mmHg 80%
    19:00 +20°C° 0.2 mm 1 mps 646 mmHg 85%
    20:00 +20°C° 0 mm 1 mps 646 mmHg 83%
    21:00 +20°C° 0 mm 1 mps 647 mmHg 82%
    22:00 +19°C° 0 mm 1 mps 647 mmHg 80%
    23:00 +18°C° 0.2 mm 2 mps 647 mmHg 81%
    Show more